Weather History for Salt Lake City, UT

Change the Weather History Date:

Thursday, January 31, 2013

  Actual Average Record
Temperature  
Mean Temperature 39 °F 30 °F  
Max Temperature 44 °F 39 °F 63 °F (2003)
Min Temperature 33 °F 22 °F -8 °F (1979)
Degree Days  
Heating Degree Days 26 35  
Month to date heating degree days 1405 1104  
Since 1 July heating degree days 3220 3394  
Cooling Degree Days 0 0  
Month to date cooling degree days 0 0  
Year to date cooling degree days 0 0  
Moisture  
Dew Point 29 °F    
Average Humidity 69    
Maximum Humidity 89    
Minimum Humidity 49    
Precipitation  
Precipitation 0.00 in 0.04 in 0.48 in (1939)
Month to date precipitation 1.52 1.25  
Year to date precipitation 1.52 1.25  
Snow  
Snow 0.00 in 0.40 in 6.80 in (1939)
Month to date snowfall 23.8 12.5  
Since 1 July snowfall 52.4 34.7  
Snow Depth 10.00 in    
Sea Level Pressure  
Sea Level Pressure 30.31 in    
Wind  
Wind Speed 4 mph (SE)    
Max Wind Speed 13 mph    
Max Gust Speed 16 mph    
Visibility 10 miles    
Events      
T = Trace of Precipitation, MM = Missing Value Source: NWS Daily Summary

Daily Weather History Graph

Daily Weather History Graph

Search for Another Location

Airport:

Trip Planner

Search our weather history database for the weather conditions in past years. The results will help you decide how hot, cold, wet, or windy it might be!

Date:

Astronomy

Jan. 31, 2013 Rise Set
Actual Time 7:38 AM MST 5:44 PM MST
Civil Twilight 7:09 AM MST 6:13 PM MST
Nautical Twilight 6:36 AM MST 6:46 PM MST
Astronomical Twilight 6:04 AM MST 7:18 PM MST
Moon 10:53 PM MST (1/31) 9:38 AM MST (1/31)
Length of Visible Light 11h 04m
Length of Day
10h 06m
Waning Gibbous, 79% of the Moon is Illuminated
Jan 31
Waning Gibbous
Feb 3
Last Quarter
Feb 10
New
Feb 17
First Quarter
Feb 25
Full

Hourly Weather History & Observations

Time (MST) Temp. Windchill Dew Point Humidity Pressure Visibility Wind Dir Wind Speed Gust Speed Precip Events Conditions
12:53 AM 37.9 °F 34.4 °F 28.9 °F 70% 30.25 in 10.0 mi ENE 4.6 mph - N/A   Overcast
1:53 AM 37.0 °F 34.5 °F 28.9 °F 73% 30.25 in 10.0 mi WNW 3.5 mph - N/A   Mostly Cloudy
2:53 AM 36.0 °F 33.3 °F 28.9 °F 76% 30.27 in 10.0 mi South 3.5 mph - N/A   Overcast
3:53 AM 35.6 °F 31.7 °F 28.4 °F 75% 30.27 in 10.0 mi East 4.6 mph - N/A   Overcast
4:53 AM 35.1 °F - 30.0 °F 82% 30.31 in 10.0 mi Calm Calm - N/A   Overcast
5:53 AM 34.0 °F 28.8 °F 30.0 °F 85% 30.32 in 10.0 mi ESE 5.8 mph - N/A   Overcast
6:53 AM 35.1 °F 30.1 °F 28.9 °F 78% 30.34 in 10.0 mi ESE 5.8 mph - N/A   Mostly Cloudy
7:53 AM 35.1 °F 30.1 °F 28.9 °F 78% 30.34 in 10.0 mi SE 5.8 mph - N/A   Mostly Cloudy
8:53 AM 34.0 °F 29.8 °F 28.9 °F 82% 30.37 in 10.0 mi ESE 4.6 mph - N/A   Mostly Cloudy
9:53 AM 37.0 °F 33.3 °F 30.9 °F 79% 30.35 in 10.0 mi SE 4.6 mph - N/A   Mostly Cloudy
10:53 AM 39.0 °F 35.7 °F 30.9 °F 73% 30.38 in 10.0 mi SE 4.6 mph - N/A   Mostly Cloudy
11:53 AM 41.0 °F - 30.0 °F 65% 30.36 in 10.0 mi Calm Calm - N/A   Mostly Cloudy
12:53 PM 42.1 °F 39.2 °F 28.9 °F 60% 30.33 in 10.0 mi ESE 4.6 mph - N/A   Mostly Cloudy
1:53 PM 43.0 °F 41.3 °F 27.0 °F 53% 30.31 in 10.0 mi South 3.5 mph - N/A   Mostly Cloudy
2:53 PM 43.0 °F - 28.0 °F 56% 30.30 in 10.0 mi Calm Calm - N/A   Mostly Cloudy
3:53 PM 44.1 °F - 27.0 °F 51% 30.30 in 10.0 mi Calm Calm - N/A   Mostly Cloudy
4:53 PM 41.0 °F - 28.9 °F 62% 30.30 in 10.0 mi Calm Calm - N/A   Mostly Cloudy
5:53 PM 41.0 °F - 28.9 °F 62% 30.30 in 10.0 mi Calm Calm - N/A   Mostly Cloudy
6:53 PM 41.0 °F 38.0 °F 28.9 °F 62% 30.30 in 10.0 mi SSE 4.6 mph - N/A   Mostly Cloudy
7:53 PM 37.9 °F 31.5 °F 30.0 °F 73% 30.30 in 10.0 mi SE 9.2 mph - N/A   Mostly Cloudy
8:53 PM 37.9 °F 31.5 °F 30.0 °F 73% 30.27 in 10.0 mi ESE 9.2 mph - N/A   Mostly Cloudy
9:53 PM 37.9 °F 32.1 °F 28.9 °F 70% 30.29 in 10.0 mi ESE 8.1 mph - N/A   Mostly Cloudy
10:53 PM 37.9 °F 31.5 °F 28.0 °F 68% 30.28 in 10.0 mi ESE 9.2 mph - N/A   Mostly Cloudy
11:53 PM 37.9 °F 30.9 °F 28.0 °F 68% 30.27 in 10.0 mi SE 10.4 mph - N/A   Mostly Cloudy